Weather in Ukan

Russia / Udmurt Republic     58°09′49″N   52°02′56″E
temp.,
°C
wind,
m/s
gust,
m/s
humid.,
%
clouds,
%
prec.,
mm/h
press.,
hPa
HPBL,
m
20 september, mon
mon2001:00+4n3556100 0.0 1026226
04:00+3nnw2564100 0.0 1027150
07:000n378915 0.0 1029179
10:00+5nne346319 0.0 1029854
13:00+8nne34509 0.0 10291249
16:00+9ne44485 0.0 10291285
19:00+4ne33735 0.0 103039
22:00+1e36885 0.0 1031104
21 september, tue
tue2101:000e23915 0.0 103152
04:00−1e22925 0.0 103131
07:000ene22908 0.0 103130
10:00+6e346120 0.0 1029786
13:00+9e34495 0.0 10281057
16:00+10e33485 0.0 10261075
19:00+4ene33725 0.0 102626
22:00+2e34855 0.0 102654
22 september, wed
wed2201:00+1ene36905 0.0 102694
04:000ene36925 0.0 1025103
07:00−1e38904 0.0 1025147
10:00+7e57580 0.0 1025522
13:00+11e57534 0.0 1023971
16:00+12e56562 0.0 10231062
19:00+6e38854 0.0 1024128
22:00+4e499232 0.0 1025191
23 september, thu
thu2301:00+3e4109450 0.0 1025213
04:00+2e4109469 0.0 1026204
07:00+5e51080100 0.0 1025288
10:00+9ese696098 0.0 1026415
13:00+10ese4962100 0.0 1026430
16:00+12ese5858100 0.0 1025687
19:00+10ese51166100 0.0 1025389
22:00+10se41069100 0.0 1025333
24 september, fri
fri2401:00+8ese3877100 0.0 1025173
04:00+9se3875100 0.0 1025229
07:00+9se3870100 0.0 1025252
10:00+9se51180100 0.1 1025442
13:00+12se6106499 0.0 1024651
16:00+14se6962100 0.0 1023887
19:00+11se51174100 0.0 1022477
22:00+10se61461100 0.0 1022512